Weather observations for the past three days for
Hondo, Hondo Municipal Airport
Metric (Imperial)
Date Time (cdt) Wind (kph) Vis. (km) Weather Sky Cond. Temperature (ºC) Relative Humidity Wind Chill (°C) Heat Index (°C) Pressure Precipitation (cm)
Air Dwpt 6 hour altimeter (cm) sea level (mb) 1 hr 3 hr 6 hr
Max. Min.
21 10:51 E 20 16.09 Mostly Cloudy SCT023 BKN032 27.8 22.8 74% 31 76.53 1018.8
21 09:51 E 19 G 35 16.09 Mostly Cloudy SCT016 SCT028 BKN036 27.2 23.3 79% 30 76.53 1018.9
21 08:51 E 13 16.09 Overcast BKN010 BKN017 OVC034 25.6 23.3 87% 27 76.5 1018.6
21 07:51 E 13 16.09 Overcast BKN012 OVC029 24.4 23.3 94% 24 76.48 1018.1
21 06:51 E 13 16.09 Overcast BKN014 BKN021 OVC027 23.9 23.3 24.4 23.9 96% 23 76.45 1017.8
21 05:51 E 11 16.09 Overcast OVC015 24.4 23.3 94% 24 76.43 1017.6
21 04:51 E 11 16.09 Overcast BKN014 OVC020 24.4 23.3 94% 24 76.43 1017.4
21 03:51 E 15 16.09 Overcast SCT013 BKN018 OVC024 24.4 23.3 94% 24 76.43 1017.2
21 02:51 E 11 16.09 Overcast BKN013 OVC019 23.9 23.3 96% 23 76.45 1017.4
21 01:51 NE 13 16.09 Overcast FEW018 OVC028 24.4 23.3 94% 24 76.48 1018.0
21 00:51 E 9 16.09 Mostly Cloudy BKN029 BKN036 24.4 23.3 25.6 23.9 94% 24 76.5 1018.4
20 23:51 NE 7 16.09 Mostly Cloudy FEW015 BKN027 24.4 23.3 94% 24 76.5 1018.5
20 22:51 NE 9 16.09 Overcast FEW021 FEW025 OVC035 23.9 22.8 94% 23 76.45 1018.0
20 21:51 E 11 16.09 Partly Cloudy FEW020 SCT046 23.9 22.2 90% 23 76.4 1017.2
20 20:51 E 15 16.09 A Few Clouds FEW034 25.6 23.9 90% 27 76.38 1016.7
20 19:51 E 13 16.09 Fair CLR 25 23.3 90% 26 76.33 1016.2
20 18:51 E 28 G 39 12.87 Overcast FEW024 BKN070 OVC095 25 23.3 32.2 24.4 90% 26 76.33 1016.0
20 17:51 E 26 G 39 16.09 Thunderstorm in Vicinity FEW026 BKN095 OVC110 25 22.2 85% 26 76.28 1015.5
20 15:51 E 20 G 39 16.09 Partly Cloudy FEW020 SCT027 SCT032 28.3 24.4 79% 33 76.25 1015.0
20 14:51 E 33 G 48 16.09 A Few Clouds and Breezy FEW029 32.2 23.9 62% 38 76.23 1014.4
20 13:51 E 28 G 44 16.09 Mostly Cloudy FEW026 SCT036 BKN070 30.6 23.3 65% 35 76.28 1015.3
20 12:51 E 35 G 50 16.09 Overcast and Breezy SCT021 BKN030 OVC060 27.8 23.3 28.9 24.4 77% 31 76.33 1016.0
20 11:51 E 33 G 48 16.09 Mostly Cloudy and Breezy BKN022 BKN031 BKN041 28.9 23.3 72% 33 76.33 1016.1
20 10:51 E 28 G 41 16.09 Overcast BKN013 OVC023 26.7 23.9 85% 29 76.33 1016.2
20 09:51 E 26 6.44 Fog/Mist BKN014 BKN020 OVC028 25.6 23.9 90% 27 76.35 1016.6
20 08:51 E 28 G 37 9.66 Fog/Mist FEW014 BKN021 OVC033 25 23.3 90% 26 76.3 1016.0
20 07:51 E 20 16.09 Overcast BKN012 BKN019 OVC029 24.4 22.8 91% 24 76.25 1015.0
20 06:51 NE 28 G 39 14.48 Mostly Cloudy FEW016 SCT028 BKN045 24.4 22.8 24.4 23.3 91% 24 76.2 1014.4
20 05:51 NE 24 16.09 Partly Cloudy FEW014 SCT033 23.9 22.8 94% 23 76.17 1014.0
20 04:51 NE 24 G 39 16.09 Overcast SCT018 BKN031 OVC043 23.9 23.3 96% 23 76.17 1014.0
20 03:51 NE 20 16.09 Overcast FEW018 BKN029 OVC045 23.9 23.3 96% 23 76.15 1013.8
20 02:51 E 22 G 39 16.09 Overcast OVC020 23 0 0% 76.17 1014.0
20 01:51 NE 20 16.09 Mostly Cloudy FEW018 BKN026 23 0 0% 76.17 1014.1
20 00:51 NE 22 16.09 Mostly Cloudy FEW028 BKN047 23 0 23.3 22.2 0% 76.23 1014.8
19 23:51 NE 26 14.48 Mostly Cloudy SCT019 BKN055 BKN110 23 0 0% 76.25 1015.1
19 22:51 NE 26 G 41 12.87 Overcast FEW039 BKN070 OVC100 23 0 0% 76.25 1015.0
19 21:51 NE 31 G 46 8.05 Mostly Cloudy with Haze FEW037 SCT090 BKN110 22 0 0% 76.2 1014.3
19 20:51 NE 24 9.66 Mostly Cloudy with Haze FEW050 BKN080 BKN090 22 0 0% 76.17 1014.0
19 19:51 NE 26 12.87 Partly Cloudy FEW048 SCT100 23 0 0% 76.12 1013.3
19 18:51 NE 24 G 39 12.87 Mostly Cloudy FEW015 BKN085 23.3 22.8 28.3 23.3 97% 76.07 1012.8
19 17:51 NE 26 G 37 6.44 Fog/Mist BKN014 BKN080 OVC100 23.9 22.2 90% 23 76.05 1012.4
19 16:51 NE 33 G 48 12.87 Overcast and Breezy FEW013 BKN019 OVC032 25.6 22.8 85% 27 76.02 1012.2
19 15:51 NE 39 G 52 16.09 Overcast and Breezy SCT021 BKN042 OVC050 27.2 21.7 72% 29 76.02 1012.0
19 14:51 E 30 G 46 16.09 Overcast SCT021 BKN039 OVC047 27.8 22.2 72% 30 76.05 1012.1
19 13:51 NE 26 16.09 Overcast FEW022 SCT027 OVC032 27.8 22.2 72% 30 76.05 1012.3
19 12:51 E 20 G 37 16.09 Overcast OVC025 27.8 21.7 28.9 23.3 69% 30 76.07 1012.7
19 11:51 E 24 16.09 Overcast OVC023 27.8 21.7 69% 30 76.07 1012.6
19 10:51 E 26 16.09 Mostly Cloudy SCT024 BKN030 BKN036 28.9 22.2 67% 32 76.05 1012.1
19 09:51 NE 20 16.09 Overcast OVC022 26.1 21.7 77% 28 76.05 1012.2
19 08:51 NE 17 16.09 Overcast OVC021 24.4 22.8 91% 24 76.05 1012.0
19 07:51 NE 15 16.09 Overcast OVC019 25 21.7 82% 26 75.97 1011.2
19 06:51 NE 13 16.09 Overcast OVC020 24.4 21.1 25.6 24.4 82% 25 75.92 1010.6
19 05:51 E 15 16.09 Mostly Cloudy BKN019 BKN028 24.4 21.1 82% 25 75.9 1010.2
19 04:51 E 15 16.09 Overcast BKN021 OVC055 24.4 21.1 82% 25 75.84 1009.6
19 03:51 E 13 16.09 Mostly Cloudy BKN022 BKN050 24.4 21.1 82% 25 75.87 1009.7
19 02:51 E 15 16.09 Overcast OVC022 25 21.1 79% 26 75.92 1010.4
19 01:51 E 11 16.09 Partly Cloudy SCT023 24.4 20.6 79% 25 75.95 1010.7
19 00:51 E 26 16.09 Overcast BKN025 OVC049 26.1 20.6 32.8 26.1 72% 28 75.95 1010.9
18 23:51 SE 22 16.09 Mostly Cloudy BKN038 26.7 20.6 69% 28 75.95 1010.9
18 22:51 SE 35 G 46 16.09 A Few Clouds and Breezy FEW041 27.8 21.1 67% 30 75.87 1009.9
18 21:51 SE 30 G 44 16.09 Fair CLR 28.9 20 59% 31 75.79 1008.9
18 20:51 SE 30 16.09 Fair CLR 30.6 19.4 51% 32 75.72 1007.8
18 19:51 SE 28 G 37 16.09 Fair CLR 31.7 18.9 47% 33 75.67 1007.1
18 18:51 SE 31 G 48 16.09 Fair CLR 32.8 19.4 35 31.7 45% 35 75.62 1006.5
18 17:51 SE 30 G 43 16.09 Fair CLR 34.4 20 43% 37 75.59 1006.2
18 16:51 SE 31 G 50 16.09 Fair CLR 34.4 20.6 44% 37 75.62 1006.1
18 15:51 SE 26 G 43 16.09 Fair CLR 34.4 20 43% 37 75.64 1006.7
18 14:51 SE 28 G 41 16.09 Fair CLR 33.9 20.6 46% 37 75.69 1007.3
18 13:51 E 24 16.09 Fair CLR 33.3 21.7 51% 37 75.74 1007.9
18 12:51 S 15 G 30 16.09 Mostly Cloudy FEW043 BKN070 31.7 21.7 32.2 24.4 55% 35 75.77 1008.4
18 11:51 SE 19 G 30 16.09 Mostly Cloudy FEW019 BKN060 30 21.7 61% 33 75.79 1008.8
Date Time (cdt) Wind (kph) Vis. (km) Weather Sky Cond. Air Dwpt Max. Min. Relative Humidity Wind Chill (°C) Heat Index (°C) altimeter (cm) sea level (mb) 1 hr 3 hr 6 hr
6 hour
Temperature (ºC) Pressure Precipitation (cm)